Weather History for KCAV - September, 2012

Change the Weather History Date:

Wednesday, September 19, 2012

  Actual Average Record
Temperature  
Mean Temperature 64 °F -  
Max Temperature 82 °F 74 °F 97 °F (1948)
Min Temperature 46 °F 50 °F 33 °F (1991)
Degree Days  
Heating Degree Days 1    
Growing Degree Days 14 (Base 50)    
Moisture  
Dew Point 36 °F    
Average Humidity 41    
Maximum Humidity 71    
Minimum Humidity 17    
Precipitation  
Precipitation 0.00 in - - ()
Sea Level Pressure  
Sea Level Pressure 29.83 in    
Wind  
Wind Speed 12 mph (SW)    
Max Wind Speed 23 mph    
Max Gust Speed 32 mph    
Visibility 10 miles    
Events      
Averages and records for this station are not official NWS values.
T = Trace of Precipitation, MM = Missing Value Source: NWS Daily Summary

Daily Weather History Graph

Daily Weather History Graph

Search for Another Location

Airport or City:

Trip Planner

Search our weather history database for the weather conditions in past years. The results will help you decide how hot, cold, wet, or windy it might be!

Date:

Astronomy

Sep. 19, 2012 Rise Set
Actual Time 6:59 AM CDT 7:16 PM CDT
Civil Twilight 6:31 AM CDT 7:44 PM CDT
Nautical Twilight 5:58 AM CDT 8:18 PM CDT
Astronomical Twilight 5:24 AM CDT 8:52 PM CDT
Moon 11:17 AM CDT (9/19) 9:19 PM CDT (9/19)
Length of Visible Light 13h 13m
Length of Day
12h 17m
Waxing Crescent, 17% of the Moon is Illuminated
Sep 19
Waxing Crescent
Sep 22
First Quarter
Sep 29
Full
Oct 8
Last Quarter
Oct 15
New

Hourly Weather History & Observations

Time (CDT) Temp. Windchill Dew Point Humidity Pressure Visibility Wind Dir Wind Speed Gust Speed Precip Events Conditions
12:15 AM 48.2 °F - 32.0 °F 54% 29.94 in 10.0 mi SSE 8.1 mph - N/A   Clear
12:35 AM 48.2 °F - 33.8 °F 58% 29.94 in 10.0 mi SE 5.8 mph - N/A   Clear
12:55 AM 48.2 °F - 32.0 °F 54% 29.94 in 10.0 mi SSE 6.9 mph - N/A   Clear
1:15 AM 46.4 °F 42.9 °F 33.8 °F 62% 29.93 in 10.0 mi SSE 6.9 mph - N/A   Clear
1:35 AM 48.2 °F - 33.8 °F 58% 29.93 in 10.0 mi SSE 8.1 mph - N/A   Clear
1:55 AM 50.0 °F - 33.8 °F 54% 29.93 in 10.0 mi SSE 10.4 mph - N/A   Clear
2:15 AM 51.8 °F - 33.8 °F 50% 29.92 in 10.0 mi South 9.2 mph - N/A   Clear
2:35 AM 51.8 °F - 35.6 °F 54% 29.92 in 10.0 mi SSE 9.2 mph - N/A   Scattered Clouds
2:55 AM 51.8 °F - 35.6 °F 54% 29.91 in 10.0 mi South 11.5 mph - N/A   Mostly Cloudy
3:15 AM 51.8 °F - 35.6 °F 54% 29.90 in 10.0 mi South 12.7 mph - N/A   Scattered Clouds
3:35 AM 50.0 °F - 35.6 °F 58% 29.90 in 10.0 mi South 10.4 mph - N/A   Clear
3:55 AM 50.0 °F - 35.6 °F 58% 29.89 in 10.0 mi South 12.7 mph - N/A   Clear
4:15 AM 50.0 °F - 35.6 °F 58% 29.88 in 10.0 mi South 12.7 mph - N/A   Clear
4:55 AM 50.0 °F - 35.6 °F 58% 29.86 in 10.0 mi South 12.7 mph - N/A   Clear
5:15 AM 48.2 °F - 37.4 °F 66% 29.85 in 10.0 mi South 15.0 mph 20.7 mph N/A   Clear
5:35 AM 48.2 °F - 37.4 °F 66% 29.84 in 10.0 mi South 16.1 mph 21.9 mph N/A   Clear
5:55 AM 48.2 °F - 37.4 °F 66% 29.83 in 10.0 mi South 13.8 mph 20.7 mph N/A   Clear
6:15 AM 48.2 °F - 37.4 °F 66% 29.83 in 10.0 mi South 16.1 mph 19.6 mph N/A   Clear
6:35 AM 48.2 °F - 37.4 °F 66% 29.82 in 10.0 mi South 15.0 mph 21.9 mph N/A   Clear
6:55 AM 48.2 °F - 37.4 °F 66% 29.82 in 10.0 mi South 15.0 mph 21.9 mph N/A   Clear
7:15 AM 48.2 °F - 39.2 °F 71% 29.82 in 10.0 mi South 13.8 mph - N/A   Clear
7:35 AM 50.0 °F - 39.2 °F 66% 29.81 in 10.0 mi South 12.7 mph - N/A   Clear
7:55 AM 50.0 °F - 39.2 °F 66% 29.80 in 10.0 mi South 12.7 mph 18.4 mph N/A   Clear
8:15 AM 51.8 °F - 41.0 °F 67% 29.80 in 10.0 mi South 12.7 mph - N/A   Clear
8:35 AM 55.4 °F - 41.0 °F 58% 29.81 in 10.0 mi South 12.7 mph 20.7 mph N/A   Clear
8:55 AM 57.2 °F - 42.8 °F 59% 29.81 in 10.0 mi SSW 16.1 mph 21.9 mph N/A   Clear
9:15 AM 59.0 °F - 42.8 °F 55% 29.80 in 10.0 mi SSW 19.6 mph 24.2 mph N/A   Clear
9:55 AM 62.6 °F - 44.6 °F 52% 29.79 in 10.0 mi SSW 16.1 mph 23.0 mph N/A   Clear
10:15 AM 64.4 °F - 44.6 °F 49% 29.79 in 10.0 mi SSW 17.3 mph 21.9 mph N/A   Clear
10:35 AM 66.2 °F - 44.6 °F 46% 29.78 in 10.0 mi SSW 15.0 mph 21.9 mph N/A   Clear
10:55 AM 68.0 °F - 44.6 °F 43% 29.78 in 10.0 mi SW 16.1 mph - N/A   Clear
11:15 AM 69.8 °F - 44.6 °F 40% 29.77 in 10.0 mi SSW 15.0 mph 25.3 mph N/A   Clear
11:35 AM 71.6 °F - 44.6 °F 38% 29.77 in 10.0 mi SSW 15.0 mph 20.7 mph N/A   Clear
11:55 AM 73.4 °F - 44.6 °F 36% 29.76 in 10.0 mi SSW 16.1 mph 23.0 mph N/A   Clear
12:15 PM 73.4 °F - 42.8 °F 33% 29.74 in 10.0 mi SSW 15.0 mph - N/A   Clear
12:35 PM 75.2 °F - 44.6 °F 34% 29.74 in 10.0 mi SSW 16.1 mph 24.2 mph N/A   Clear
12:55 PM 78.8 °F - 44.6 °F 30% 29.73 in 10.0 mi SSW 18.4 mph 21.9 mph N/A   Clear
1:15 PM 78.8 °F - 44.6 °F 30% 29.72 in 10.0 mi SSW 16.1 mph 23.0 mph N/A   Clear
1:35 PM 80.6 °F - 42.8 °F 26% 29.72 in 10.0 mi SW 15.0 mph 26.5 mph N/A   Clear
1:55 PM 82.4 °F - 42.8 °F 25% 29.71 in 10.0 mi SW 16.1 mph 24.2 mph N/A   Clear
2:15 PM 82.4 °F - 39.2 °F 21% 29.71 in 10.0 mi WSW 17.3 mph 24.2 mph N/A   Clear
2:35 PM 80.6 °F - 39.2 °F 23% 29.72 in 10.0 mi West 20.7 mph 25.3 mph N/A   Clear
2:55 PM 80.6 °F - 39.2 °F 23% 29.73 in 10.0 mi WNW 23.0 mph 31.1 mph N/A   Clear
3:15 PM 78.8 °F - 37.4 °F 23% 29.74 in 10.0 mi WNW 16.1 mph 28.8 mph N/A   Clear
3:35 PM 80.6 °F - 37.4 °F 21% 29.75 in 10.0 mi West 18.4 mph 29.9 mph N/A   Clear
3:55 PM 80.6 °F - 37.4 °F 21% 29.75 in 10.0 mi WNW 21.9 mph 26.5 mph N/A   Clear
4:15 PM 78.8 °F - 37.4 °F 23% 29.75 in 10.0 mi WNW 19.6 mph 25.3 mph N/A   Clear
4:35 PM 78.8 °F - 35.6 °F 21% 29.76 in 10.0 mi WNW 17.3 mph 28.8 mph N/A   Clear
4:55 PM 77.0 °F - 28.4 °F 17% 29.77 in 10.0 mi WNW 19.6 mph 32.2 mph N/A   Clear
5:15 PM 77.0 °F - 28.4 °F 17% 29.78 in 10.0 mi WNW 21.9 mph 29.9 mph N/A   Clear
5:35 PM 75.2 °F - 28.4 °F 18% 29.79 in 10.0 mi WNW 19.6 mph 25.3 mph N/A   Clear
5:55 PM 73.4 °F - 30.2 °F 20% 29.80 in 10.0 mi WNW 13.8 mph 24.2 mph N/A   Clear
6:15 PM 71.6 °F - 30.2 °F 22% 29.81 in 10.0 mi WNW 12.7 mph 24.2 mph N/A   Clear
6:35 PM 69.8 °F - 30.2 °F 23% 29.82 in 10.0 mi WNW 12.7 mph 20.7 mph N/A   Clear
6:55 PM 69.8 °F - 28.4 °F 21% 29.83 in 10.0 mi NW 12.7 mph 19.6 mph N/A   Clear
7:15 PM 66.2 °F - 28.4 °F 24% 29.84 in 10.0 mi NW 13.8 mph 17.3 mph N/A   Clear
7:35 PM 64.4 °F - 28.4 °F 26% 29.85 in 10.0 mi WNW 11.5 mph - N/A   Clear
7:55 PM 64.4 °F - 26.6 °F 24% 29.86 in 10.0 mi NW 15.0 mph - N/A   Clear
8:15 PM 62.6 °F - 26.6 °F 26% 29.87 in 10.0 mi NW 11.5 mph - N/A   Clear
8:35 PM 60.8 °F - 28.4 °F 29% 29.89 in 10.0 mi NW 8.1 mph - N/A   Clear
8:55 PM 59.0 °F - 28.4 °F 31% 29.90 in 10.0 mi WNW 5.8 mph - N/A   Clear
9:15 PM 57.2 °F - 28.4 °F 33% 29.90 in 10.0 mi WNW 3.5 mph - N/A   Clear
9:35 PM 55.4 °F - 30.2 °F 38% 29.91 in 10.0 mi WNW 5.8 mph - N/A   Clear
9:55 PM 55.4 °F - 30.2 °F 38% 29.91 in 10.0 mi NW 3.5 mph - N/A   Clear
10:15 PM 55.4 °F - 28.4 °F 36% 29.91 in 10.0 mi WNW 5.8 mph - N/A   Clear
10:35 PM 55.4 °F - 28.4 °F 36% 29.92 in 10.0 mi WNW 4.6 mph - N/A   Clear
10:55 PM 55.4 °F - 28.4 °F 36% 29.92 in 10.0 mi WNW 5.8 mph - N/A   Clear
11:15 PM 57.2 °F - 26.6 °F 31% 29.92 in 10.0 mi NW 9.2 mph - N/A   Clear
11:35 PM 55.4 °F - 26.6 °F 33% 29.92 in 10.0 mi NW 9.2 mph - N/A   Clear
11:55 PM 55.4 °F - 26.6 °F 33% 29.93 in 10.0 mi NW 11.5 mph 16.1 mph N/A   Clear